Regional Weather Roundup
Issued by NWS Kansas City/Pleasant Hill, MO

Home | Current Version | Previous Version | Graphics & Text | Print | Product List | Glossary Off
Versions: 1 2 3 4 5 6 7 8 9 10 11 12 13 14 15 16 17 18 19 20 21 22 23 24 25 26 27 28 29 30 31 32 33 34 35 36 37 38 39 40 41 42 43 44 45 46 47 48 49 50

000
ASUS43 KEAX 011811
RWREAX

WEATHER ROUNDUP FOR EASTERN KANSAS AND NORTHWEST MISSOURI
NATIONAL WEATHER SERVICE KANSAS CITY/PLEASANT HILL MO
100 PM CDT FRI AUG 01 2014

KSZ040-057-103>105-MOZ028-029-037-043-011900-
...KANSAS CITY METROPOLITAN AREA...

CITY           SKY/WX    TMP DP  RH WIND       PRES   REMARKS
K.C. INTL      MOSUNNY   82  62  50 SE9       30.08F
6HR MIN TEMP:  66; 6HR MAX TEMP:  82; 6HR PCP: TRACE;

K.C. DOWNTOWN  SUNNY     83  61  47 E9        30.07F
6HR MIN TEMP:  70; 6HR MAX TEMP:  83; 6HR PCP: TRACE;

LEES SUMMIT    SUNNY     79  60  52 MISG      30.09F
6HR MIN TEMP:  67; 6HR MAX TEMP:  80;

OLATHE - IXD   MOSUNNY   83  58  42 SE6       30.08F
6HR MIN TEMP:  66; 6HR MAX TEMP:  83;

OLATHE - OJC   SUNNY     81  58  45 SE7       30.07F
6HR MIN TEMP:  67; 6HR MAX TEMP:  82;

LAWRENCE       PTSUNNY   83  59  44 SE9G17    30.06F

$$

MOZ001>008-011>017-020>025-030>033-038>040-044>046-053-054-011900-
...NORTHERN AND CENTRAL MISSOURI...

CITY           SKY/WX    TMP DP  RH WIND       PRES   REMARKS
ST. JOSEPH     CLOUDY    80  62  54 SE6       30.08S
6HR MIN TEMP:  65; 6HR MAX TEMP:  81; 6HR PCP: TRACE;

MOSBY          PTCLDY    79  61  53 SE5       30.08F
WARRENSBURG    PTSUNNY   75  61  60 E7        30.09S
WHITEMAN AFB   PTSUNNY   77  53  42 NE7       30.09F
6HR MIN TEMP:  63; 6HR MAX TEMP:  77; 6HR PCP: TRACE;

CLINTON        PTSUNNY   79  70  73 CALM      30.09F
SEDALIA        PTSUNNY   75  63  66 NE6       30.10F
6HR MIN TEMP:  62; 6HR MAX TEMP:  75; 6HR PCP: TRACE;

WARSAW         NOT AVBL
MARSHALL       CLOUDY    77  68  73 E6        30.11S HAZE
CHILLICOTHE      N/A     78  60  53 VRB3      30.11F
6HR MIN TEMP:  67; 6HR MAX TEMP:  78; 6HR PCP:  0.01;

MOBERLY        CLOUDY    81  59  47 NE3       30.11S
KIRKSVILLE     MOSUNNY   83  61  47 N6        30.11S
6HR MIN TEMP:  65; 6HR MAX TEMP:  83;


$$

MOZ041-047>049-056>058-063>065-088>090-097-011900-
...EASTERN AND SOUTHERN MISSOURI...

CITY           SKY/WX    TMP DP  RH WIND       PRES   REMARKS
ST. LOUIS INTL PTSUNNY   86  60  41 SE6       30.07F
6HR MIN TEMP:  68; 6HR MAX TEMP:  87;

SPIRIT OF STL  MOSUNNY   85  61  44 SE6       30.05F
COLUMBIA       LGT RAIN  71  66  84 N8        30.10F
JEFFERSON CITY CLOUDY    78  63  59 N6        30.08F
HANNIBAL       CLOUDY    79  61  53 NE3       30.10S
ROLLA          MOSUNNY   84  54  35 VRB3      30.07F
LEBANON        SUNNY     86  55  35 E5        30.10S
OSAGE BEACH      N/A     81  63  54 N3        30.08S
SPRINGFIELD    MOSUNNY   75  64  68 CALM      30.11S
BRANSON        PTSUNNY   81  63  54 CALM      30.12F
NEVADA         SUNNY     82  66  57 S7        30.09F
JOPLIN         PTSUNNY   78  65  63 VRB6      30.10F
WEST PLAINS    CLOUDY    75  63  66 VRB3      30.12F
MALDEN         SUNNY     84  63  48 CALM      30.08F

$$

IAZ060-094-KSZ022-034>040-054-083-096-NEZ052-066-093-011900-
...KANSAS...SOUTHEAST NEBRASKA AND IOWA...

CITY           SKY/WX    TMP DP  RH WIND       PRES   REMARKS
TOPEKA         MOSUNNY   87  60  40 SE9G22    30.04F
6HR MIN TEMP:  66; 6HR MAX TEMP:  87; 6HR PCP: TRACE;

MANHATTAN      SUNNY     85  61  44 SW10      30.03F
EMPORIA        MOSUNNY   85  58  39 S7        30.05F
CHANUTE        MOSUNNY   81  64  56 S9        30.08F
WICHITA        MOSUNNY   85  59  41 SW9       30.06F
OMAHA          MOSUNNY   79  63  57 E6        30.10R
LINCOLN        CLOUDY    81  61  50 E6        30.09S
FALLS CITY     PTSUNNY   80  64  58 E12       30.06S
LAMONI         PTSUNNY   79  62  56 SE5       30.10S
DES MOINES     MOSUNNY   84  61  45 N6        30.09S

$$



USA.gov is the U.S. government's official web portal to all federal, state and local government web resources and services.